Regional Weather Roundup
Issued by NWS

Current Version | Previous Version | Text Only | Print | Product List | Glossary On
Versions: 1 2 3 4 5 6 7 8 9 10 11 12 13 14 15 16 17 18 19 20 21 22 23 24 25 26 27 28 29 30 31 32 33 34 35 36 37 38 39 40 41 42 43 44 45 46 47 48 49 50
000
ASUS43 KFSD 092202
RWRSD

WEATHER ROUNDUP FOR SOUTH DAKOTA
NATIONAL WEATHER SERVICE SIOUX FALLS SD
400 PM CST FRI DEC 09 2016

NOTE: "FAIR" INDICATES FEW OR NO CLOUDS BELOW 12,000 FEET WITH NO
SIGNIFICANT WEATHER AND/OR OBSTRUCTIONS TO VISIBILITY.


SDZ001>005-009-010-012>017-092300-
NORTHWEST AND NORTH CENTRAL SOUTH DAKOTA

CITY           SKY/WX    TMP DP  RH WIND       PRES   REMARKS
BUFFALO          N/A      4  -4  69 E9        30.28S WCI -10
FAITH            N/A     -1  -6  79 N10       30.42S WCI -17
MOBRIDGE       CLOUDY     1  -6  72 N6        30.49S WCI -10
$$

SDZ012>016-024>037-041>051-057-063-072>074-092300-
SOUTHWEST AND SOUTH CENTRAL SOUTH DAKOTA

CITY           SKY/WX    TMP DP  RH WIND       PRES   REMARKS
RAPID CTY ARPT FLURRIES   3  -3  76 N8        30.34S WCI -10
PIERRE         LGT SNOW   5  -2  72 N10       30.49R WCI -10
CUSTER         SUNNY     14   3  61 SW7       30.07R WCI   4
ELLSWORTH AFB  CLOUDY     2  -4  76 NE6       30.33  WCI  -9
PHILIP         LGT SNOW   6   1  80 E8        30.45R WCI  -7
PINE RIDGE     CLOUDY     6   0  76 NE7       30.30S WCI  -6
SPEARFISH      FAIR       1  -4  78 NE7       30.24F WCI -11
WINNER         CLOUDY    12   5  73 NE9       30.43R HAZE    WCI   0
$$

SDZ004>011-016>023-039-040-092300-
NORTHEAST SOUTH DAKOTA

CITY           SKY/WX    TMP DP  RH WIND       PRES   REMARKS
ABERDEEN       CLOUDY     8  -2  63 N7        30.54S WCI  -3
WATERTOWN      CLOUDY     4  -3  73 N8        30.46R WCI  -9
SISSETON         N/A      6  -2  69 N10       30.53R WCI  -9
$$

SDZ017-020-022-023-036>040-048>070-092300-
SOUTHEAST SOUTH DAKOTA

CITY           SKY/WX    TMP DP  RH WIND       PRES   REMARKS
SIOUX FALLS    MOCLDY    14   7  73 NE5       30.48S WCI   6
HURON          LGT SNOW   6   1  80 NE9       30.53R WCI  -8
CHAMBERLAIN    LGT SNOW  12   6  77 CALM      30.48R
MITCHELL       CLOUDY    11   5  77 NE8       30.51R WCI  -1
YANKTON        CLOUDY    14   3  62 E5        30.48S WCI   6
$$

ABBREVIATIONS USED IN REMARKS
   TC - TEMPERATURE IN CELSIUS
  WCI - WIND CHILL INDEX
   HX - HEAT INDEX
  VSB - VISIBILITY





USA.gov is the U.S. government's official web portal to all federal, state and local government web resources and services.